Home > Weather > Weil am Rhein > Past weeks

Flag for Germany Past Weather in Weil am Rhein, Baden-Württemberg, Germany — Yesterday and Last 2 Weeks

Now
83 °F

Scattered clouds.


Feels Like: 83 °F
Forecast: 64 / 77 °F
Wind: 3 mph from North

Location: Bale-Mulhouse

Current Time: Jul 26, 2016 at 4:22:24 PM

Latest Report: Jul 26, 2016 at 2:00 PM


Visibility: 19 mi

Pressure: 30.06 "Hg

Humidity: 44%

Dew Point: 59 °F

Location of Weil am RheinLocation

Past Weather in Weil am Rhein — Graph

°F

Weil am Rhein Temperature Yesterday

Maximum temperature yesterday: 82 °F (at 6:00 PM)
Minimum temperature yesterday: 61 °F (at 6:00 AM)
Average temperature yesterday: 73 °F

High & Low Weather Summary for the Past Weeks

 TemperatureHumidityPressure
High95 °F (Jul 20, 4:00 PM)98% (Jul 16, 7:00 AM)30.37 "Hg (Jul 16, 7:00 AM)
Low45 °F (Jul 16, 5:00 AM)30% (Jul 19, 6:00 PM)29.88 "Hg (Jul 20, 6:00 PM)
Average68 °F74%30.09 "Hg
* Reported Jul 11 2:00 PM — Jul 26 2:00 PM, Weil am Rhein, Weather by CustomWeather, © 2016

Note: Actual official high and low records may vary slightly from our data, if they occured in-between our weather recording intervals... More about our weather records

Advertising

Weil am Rhein Weather History for the Previous 24 Hours

Scroll right to see more
 ConditionsComfort  
Time TempWeatherWind HumidityBarometerVisibility
2:00 PM
Tue, Jul 26
83 °FScattered clouds.3 mph44%30.06 "Hg19 mi
1:00 PM82 °FScattered clouds.5 mph48%30.07 "Hg19 mi
12:00 PM79 °FScattered clouds.5 mph57%30.09 "Hg16 mi
11:00 AM77 °FPartly sunny.3 mph63%30.10 "Hg12 mi
10:00 AM75 °FOvercast.3 mph65%30.11 "Hg12 mi
9:00 AM71 °FOvercast.1 mph79%30.12 "Hg12 mi
8:00 AM68 °FPartly sunny.1 mph82%30.11 "Hg12 mi
7:00 AM63 °FScattered clouds.2 mph97%30.12 "Hg9 mi
6:00 AM62 °FFog.1 mph94%30.11 "Hg12 mi
5:00 AM65 °FPassing clouds.1 mph91%30.11 "Hg16 mi
4:00 AM65 °FOvercast.1 mph91%30.11 "Hg14 mi
3:00 AM65 °FOvercast.1 mph93%30.11 "Hg11 mi
2:00 AM64 °FOvercast.2 mph94%30.12 "Hg10 mi
1:00 AM64 °FMild.2 mph93%30.13 "Hg10 mi
12:00 AM65 °FPassing clouds.3 mph87%30.11 "Hg16 mi
11:00 PM
Mon, Jul 25
66 °FPassing clouds.3 mph86%30.11 "Hg19 mi
10:00 PM69 °FPassing clouds.3 mph83%30.10 "Hg19 mi
9:00 PM74 °FPartly sunny.3 mph70%30.08 "Hg19 mi
8:00 PM79 °FPartly sunny.6 mph53%30.06 "Hg19 mi
7:00 PM82 °FPartly sunny.6 mph51%30.05 "Hg16 mi
6:00 PM82 °FPartly sunny.6 mph48%30.04 "Hg16 mi
5:00 PM81 °FPartly sunny.8 mph52%30.05 "Hg16 mi
4:00 PM81 °FOvercast.7 mph54%30.05 "Hg16 mi
Weather by CustomWeather, © 2016

See weather overviewHow to use our weather pages